EW7340 Weather Reports


time (UTC)temp
F
wind
direction
speed
knots
gust
knots
rain 1hr
in
rain 24hr
in
rain mn
in
humidity
%
barometer
mb
20260506203804 53 69 0.0 0.0 0.00 0.00 0.00 79 1011.3
20260506202803 53 69 0.0 0.0 0.00 0.00 0.00 79 1011.3
20260506201803 53 69 0.0 1.7 0.00 0.00 0.00 78 1011.2
20260506200801 53 69 0.9 1.7 0.00 0.00 0.00 77 1011.1
20260506200245 53 69 0.9 1.7 0.00 0.00 0.00 77 1011.0
20260506195235 53 69 0.0 0.9 0.00 0.00 0.00 77 1010.9
20260506193759 53 69 0.0 0.9 0.00 0.00 0.00 75 1010.8
20260506192759 53 69 0.0 1.7 0.00 0.00 0.00 74 1010.7
20260506191801 53 69 0.0 2.6 0.00 0.00 0.00 75 1010.7
20260506190800 54 69 0.9 2.6 0.00 0.00 0.00 74 1010.5
20260506185757 54 69 1.7 2.6 0.00 0.00 0.00 72 1010.4
20260506184759 54 69 1.7 3.5 0.00 0.00 0.00 72 1010.3
20260506183757 54 69 1.7 3.5 0.00 0.00 0.00 71 1010.2
20260506182757 54 68 2.6 6.1 0.00 0.00 0.00 72 1010.1
20260506181755 54 75 1.7 3.5 0.00 0.00 0.00 72 1010.0
20260506180753 54 75 2.6 4.3 0.00 0.00 0.00 71 1009.9
20260506175752 54 75 2.6 4.3 0.00 0.00 0.00 70 1009.8
20260506174752 55 76 3.5 8.7 0.00 0.00 0.00 69 1009.7
20260506173751 55 69 5.2 8.7 0.00 0.00 0.00 69 1009.6
20260506172751 55 70 7.0 10.4 0.00 0.00 0.00 69 1009.5
20260506171753 55 73 7.0 11.3 0.00 0.00 0.00 67 1009.4
20260506170751 55 63 4.3 8.7 0.00 0.00 0.00 68 1009.4
20260506165741 56 65 5.2 11.3 0.00 0.00 0.00 66 1009.3
20260506165223 56 71 6.1 11.3 0.00 0.00 0.00 67 1009.2
20260506163741 56 59 4.3 8.7 0.00 0.00 0.00 66 1009.1
20260506162743 56 63 3.5 7.8 0.00 0.00 0.00 66 1009.1
20260506161741 56 74 4.3 11.3 0.00 0.00 0.00 65 1009.1
20260506161219 56 59 7.8 12.2 0.00 0.00 0.00 66 1009.1
20260506155743 56 48 7.0 12.2 0.00 0.00 0.00 66 1009.0
20260506154741 56 63 6.1 12.2 0.00 0.00 0.00 65 1009.0
20260506153741 57 64 7.8 13.9 0.00 0.00 0.00 63 1009.1
20260506152739 58 64 8.7 15.6 0.00 0.00 0.00 62 1009.0
20260506151741 58 57 5.2 12.2 0.00 0.00 0.00 62 1008.9
20260506150741 58 69 7.0 15.6 0.00 0.00 0.00 62 1008.9
20260506145739 58 42 4.3 11.3 0.00 0.00 0.00 61 1008.9
20260506144740 58 32 3.5 8.7 0.00 0.00 0.00 59 1008.8
20260506143741 58 63 4.3 10.4 0.00 0.00 0.00 59 1008.8
20260506142739 58 68 4.3 11.3 0.00 0.00 0.00 62 1008.7
20260506141739 58 19 3.5 8.7 0.00 0.00 0.00 64 1008.7
20260506140739 58 64 4.3 9.6 0.00 0.00 0.00 65 1008.8
20260506135739 59 0 4.3 13.0 0.00 0.00 0.00 65 1008.7
20260506134741 60 59 2.6 7.8 0.00 0.00 0.00 64 1008.7
20260506133737 60 44 4.3 11.3 0.00 0.00 0.00 65 1008.6
20260506133215 60 355 3.5 9.6 0.00 0.00 0.00 66 1008.6
20260506131737 60 13 4.3 11.3 0.00 0.00 0.00 66 1008.6
20260506130737 60 55 4.3 9.6 0.00 0.00 0.00 65 1008.6
20260506125737 60 62 3.5 9.6 0.00 0.00 0.00 67 1008.5
20260506124737 59 69 4.3 9.6 0.00 0.00 0.00 67 1008.4
20260506124214 58 347 3.5 8.7 0.00 0.00 0.00 69 1008.4
20260506122737 58 72 3.5 8.7 0.00 0.00 0.00 68 1008.3
20260506121737 58 49 1.7 7.0 0.00 0.00 0.00 63 1008.4
20260506120737 59 134 1.7 7.8 0.00 0.00 0.00 67 1008.4
20260506115739 60 10 3.5 9.6 0.00 0.00 0.00 64 1008.2
20260506114737 61 329 3.5 10.4 0.00 0.00 0.00 68 1008.2
20260506114212 61 33 3.5 9.6 0.00 0.00 0.00 67 1008.1
20260506112735 60 21 2.6 7.8 0.00 0.00 0.00 70 1008.1
20260506111737 59 11 1.7 7.8 0.00 0.00 0.00 69 1008.2
20260506110735 58 345 2.6 7.8 0.00 0.00 0.00 72 1008.1
20260506105733 57 63 2.6 6.1 0.00 0.00 0.00 70 1008.1
20260506105209 57 350 1.7 5.2 0.00 0.00 0.00 72 1008.2
20260506102733 57 16 1.7 4.3 0.00 0.00 0.00 75 1008.2
20260506101732 57 351 1.7 7.0 0.00 0.00 0.00 75 1008.1
20260506100735 57 11 3.5 7.8 0.00 0.00 0.00 77 1008.0
20260506094731 58 327 2.6 9.6 0.00 0.00 0.00 74 1008.0
20260506093732 58 248 2.6 9.6 0.00 0.00 0.00 76 1007.9
20260506093216 58 266 3.5 8.7 0.00 0.00 0.00 77 1008.0
20260506091732 58 329 2.6 7.8 0.00 0.00 0.00 77 1008.0
20260506085731 56 200 1.7 6.1 0.00 0.00 0.00 81 1007.8
20260506084730 56 46 2.6 8.7 0.00 0.00 0.00 82 1007.9
20260506083732 55 38 2.6 7.8 0.00 0.00 0.00 83 1007.8
20260506082730 55 28 2.6 7.8 0.00 0.00 0.00 83 1007.7
20260506081729 55 67 1.7 7.8 0.00 0.00 0.00 86 1007.7
20260506080730 54 322 1.7 7.0 0.00 0.00 0.00 85 1007.7
20260506072729 53 311 1.7 7.0 0.00 0.00 0.00 90 1007.6
20260506071730 52 321 2.6 6.1 0.00 0.00 0.00 91 1007.7
20260506070727 52 333 1.7 5.2 0.00 0.00 0.00 92 1007.6
20260506061726 50 323 1.7 5.2 0.00 0.00 0.00 98 1007.5
20260506060724 49 288 1.7 7.0 0.00 0.00 0.00 98 1007.4
20260506050722 49 316 1.7 4.3 0.00 0.00 0.00 97 1007.4
20260506044723 49 25 1.7 5.2 0.00 0.00 0.00 96 1007.5
20260506043723 49 19 0.9 5.2 0.00 0.00 0.00 96 1007.5
20260506042723 49 5 0.9 4.3 0.00 0.00 0.00 95 1007.5
20260506041718 49 355 0.9 6.1 0.00 0.00 0.00 94 1007.5
20260506040719 49 339 1.7 5.2 0.00 0.00 0.00 93 1007.5
20260506035719 49 45 1.7 4.3 0.00 0.00 0.00 92 1007.4
20260506034720 49 39 1.7 5.2 0.00 0.00 0.00 91 1007.5
20260506033718 49 46 1.7 7.0 0.00 0.00 0.00 90 1007.5
20260506031717 49 355 1.7 7.0 0.00 0.00 0.00 89 1007.6
20260506030716 49 309 2.6 8.7 0.00 0.00 0.00 89 1007.6
20260506025718 49 336 2.6 5.2 0.00 0.00 0.00 90 1007.6
20260506024717 49 53 1.7 5.2 0.00 0.00 0.00 90 1007.7
20260506023716 49 294 2.6 7.0 0.00 0.00 0.00 90 1007.8
20260506022718 49 355 1.7 7.0 0.00 0.00 0.00 90 1007.8
20260506021717 49 327 1.7 6.1 0.00 0.00 0.00 90 1007.9
20260506020717 49 294 1.7 5.2 0.00 0.00 0.00 89 1007.9
20260506015717 49 315 1.7 5.2 0.00 0.00 0.00 89 1007.9
20260506014717 49 296 1.7 5.2 0.00 0.00 0.00 88 1007.9
20260506013716 49 327 1.7 5.2 0.00 0.00 0.00 88 1007.9
20260506012717 49 321 1.7 5.2 0.00 0.00 0.00 88 1007.9
20260506011715 49 320 1.7 6.1 0.00 0.00 0.00 88 1007.9
20260506010715 49 305 1.7 7.0 0.00 0.00 0.00 87 1008.0
20260506005714 49 355 1.7 6.1 0.00 0.00 0.00 88 1008.1
20260506004716 49 355 2.6 6.1 0.00 0.00 0.00 87 1008.2
20260506003714 49 32 1.7 7.8 0.00 0.00 0.00 87 1008.3
20260506002714 49 32 1.7 7.0 0.00 0.00 0.00 87 1008.3
20260506001712 49 300 1.7 4.3 0.00 0.00 0.00 87 1008.4
20260506000158 49 306 1.7 4.3 0.00 0.00 0.00 87 1008.6
20260505235149 48 333 1.7 4.3 0.00 0.00 0.00 88 1008.6
20260505233709 48 308 0.9 4.3 0.00 0.00 0.00 88 1008.6
20260505233154 48 50 0.9 2.6 0.00 0.00 0.00 87 1008.7
20260505231708 48 348 0.9 2.6 0.00 0.00 0.00 87 1008.7
20260505230709 48 355 0.9 2.6 0.00 0.00 0.00 87 1008.8
20260505224710 48 5 0.9 3.5 0.00 0.00 0.00 87 1008.8
20260505223710 49 28 1.7 5.2 0.00 0.00 0.00 87 1008.9
20260505222710 49 15 0.9 6.1 0.00 0.00 0.00 87 1009.0
20260505222147 49 344 1.7 4.3 0.00 0.00 0.00 87 1008.9
20260505220708 49 11 1.7 5.2 0.00 0.00 0.00 87 1009.0
20260505215708 49 348 0.9 3.5 0.00 0.00 0.00 87 1009.0
20260505214708 50 342 1.7 3.5 0.00 0.00 0.00 86 1009.1
20260505214147 50 268 1.7 5.2 0.00 0.00 0.00 86 1009.1
20260505212712 50 32 0.9 4.3 0.00 0.00 0.00 85 1009.1
20260505211709 50 19 1.7 7.8 0.00 0.00 0.00 85 1009.2
20260505210708 50 28 1.7 5.2 0.00 0.00 0.00 85 1009.1
20260505205709 51 17 1.7 7.8 0.00 0.00 0.00 84 1009.2
20260505204708 51 38 2.6 7.8 0.00 0.00 0.00 84 1009.2